Grand Canyon, AZ

2:51 PM MST on May 29, 2017 (GMT -0700)
Grand Canyon National Park

Weather History for KGCN - May, 2013

Change the Weather History Date:

Monday, May 27, 2013

  Actual Average Record
Temperature  
Mean Temperature 56 °F -  
Max Temperature 77 °F 74 °F 87 °F (1984)
Min Temperature 35 °F 32 °F 21 °F (2012)
Degree Days  
Heating Degree Days 9    
Growing Degree Days 6 (Base 50)    
Moisture  
Dew Point 14 °F    
Average Humidity 21    
Maximum Humidity 39    
Minimum Humidity 7    
Precipitation  
Precipitation 0.00 in - - ()
Sea Level Pressure  
Sea Level Pressure 29.84 in    
Wind  
Wind Speed 5 mph (SW)    
Max Wind Speed 21 mph    
Max Gust Speed 30 mph    
Visibility 10 miles    
Events      
Averages and records for this station are not official NWS values.
T = Trace of Precipitation, MM = Missing Value Source: NWS Daily Summary

Daily Weather History Graph

Daily Weather History Graph

Search for Another Location

Airport or City:

Trip Planner

Search our weather history database for the weather conditions in past years. The results will help you decide how hot, cold, wet, or windy it might be!

Date:

Astronomy

May. 27, 2013 Rise Set
Actual Time 5:15 AM MST 7:36 PM MST
Civil Twilight 4:45 AM MST 8:06 PM MST
Nautical Twilight 4:09 AM MST 8:42 PM MST
Astronomical Twilight 3:30 AM MST 9:22 PM MST
Moon 10:21 PM MST (5/27) 7:55 AM MST (5/27)
Length of Visible Light 15h 20m
Length of Day
14h 21m
Waning Gibbous, 90% of the Moon is Illuminated
May 27
Waning Gibbous
May 31
Last Quarter
Jun 8
New
Jun 16
First Quarter
Jun 23
Full

Hourly Weather History & Observations

Time (MST) Temp. Windchill Dew Point Humidity Pressure Visibility Wind Dir Wind Speed Gust Speed Precip Events Conditions
12:54 AM 39.0 °F - 10.0 °F 30% 29.93 in 10.0 mi Calm Calm - N/A   Clear
1:54 AM 35.1 °F 32.2 °F 9.0 °F 34% 29.93 in 10.0 mi ENE 3.5 mph - N/A   Clear
2:54 AM 35.1 °F - 10.0 °F 35% 29.92 in 10.0 mi Calm Calm - N/A   Clear
3:54 AM 35.1 °F - 10.0 °F 35% 29.91 in 10.0 mi Calm Calm - N/A   Clear
4:54 AM 35.1 °F - 12.0 °F 39% 29.92 in 10.0 mi Calm Calm - N/A   Clear
5:54 AM 37.0 °F - 14.0 °F 39% 29.93 in 10.0 mi Calm Calm - N/A   Clear
6:54 AM 48.0 °F - 16.0 °F 28% 29.90 in 10.0 mi Calm Calm - N/A   Clear
7:54 AM 59.0 °F - 19.0 °F 21% 29.88 in 10.0 mi SSW 5.8 mph - N/A   Clear
8:54 AM 62.1 °F - 19.9 °F 20% 29.88 in 10.0 mi South 4.6 mph - N/A   Clear
9:54 AM 64.9 °F - 17.1 °F 16% 29.86 in 10.0 mi WSW 8.1 mph - N/A   Clear
10:54 AM 66.9 °F - 16.0 °F 14% 29.84 in 10.0 mi WSW 8.1 mph - N/A   Clear
11:54 AM 71.1 °F - 15.1 °F 12% 29.82 in 10.0 mi Variable 5.8 mph - N/A   Clear
12:54 PM 72.0 °F - 12.0 °F 10% 29.85 in 10.0 mi WSW 11.5 mph 18.4 mph N/A   Clear
1:54 PM 73.0 °F - 14.0 °F 11% 29.85 in 10.0 mi South 8.1 mph 23.0 mph N/A   Clear
2:54 PM 75.9 °F - 12.0 °F 9% 29.81 in 10.0 mi West 12.7 mph 24.2 mph N/A   Clear
3:54 PM 77.0 °F - 8.1 °F 7% 29.78 in 10.0 mi West 12.7 mph 21.9 mph N/A   Clear
4:54 PM 75.9 °F - 9.0 °F 8% 29.76 in 10.0 mi SW 20.7 mph 29.9 mph N/A   Clear
5:54 PM 73.9 °F - 12.9 °F 10% 29.75 in 10.0 mi WSW 16.1 mph 27.6 mph N/A   Partly Cloudy
6:54 PM 70.0 °F - 10.0 °F 10% 29.74 in 10.0 mi WSW 13.8 mph - N/A   Clear
7:54 PM 66.0 °F - 15.1 °F 14% 29.73 in 10.0 mi SW 10.4 mph - N/A   Clear
8:54 PM 60.1 °F - 17.1 °F 19% 29.76 in 10.0 mi SW 6.9 mph - N/A   Clear
9:54 PM 55.9 °F - 17.1 °F 22% 29.78 in 10.0 mi SW 6.9 mph - N/A   Clear
10:54 PM 53.1 °F - 17.1 °F 24% 29.78 in 10.0 mi SW 6.9 mph - N/A   Clear
11:54 PM 43.0 °F - 15.1 °F 32% 29.79 in 10.0 mi Calm Calm - N/A   Clear